CZ-4 DEB

Satellite information

Favourite Embed

Satellite Type and Status

DEBRISIN ORBIT

Key statistics

Satellite CZ-4 DEB at a glance.

Uptime

12667

Days in orbit

Revolutions

≈ 14.5

Per day

Orbit

SSO

Sun Synchronous Orbit

Inclination

98.3

Latest

Satellite identification and parameters

Extended collection of information and parameters for CZ-4 DEB.

Object identification

Identified? True

Debris? True

Object name: CZ-4 DEB

International designator: 1990-081DJ

Object number (NORAD): 37622

Object ID (CCSDS): 37622

Country: PEOPLES REPUBLIC OF CHINA (PRC)

Current information (Y/N): Y

RCS size: SMALL

Orbital parameters

Period: 99.569 minutes

Inclination: 98.3416 deg

SMA: 7116.128 km

Apoapsis: 762.918 km

Periapsis: 713.069 km

RAAN: 163.9351 deg

Eccentricy: 0.0035025

Argument of periapsis: 127.7251 deg

Mean anomaly: 264.9747 deg

Mean motion: 14.46229091 rev/day

Mean motion (dot): 0.00003088 rev/day2

B* drag term: 0.00086829 1/REarth

Two-line elements (TLE)

Creation date: May 7, 2025, 3:14 a.m.

Reference frame: TEME

Reference center: EARTH

Epoch: May 6, 2025, 1:22 a.m. UTC

TLE line 0: 0 CZ-4 DEB

TLE line 1: 1 37622U 90081DJ 25126.05705557 .00003088 00000-0 86829-3 0 9993

TLE line 2: 2 37622 98.3416 163.9351 0035025 127.7251 264.9747 14.46229091273000

Live tracking on map

Real-time ground track for satellite CZ-4 DEB.

In-orbit conjunctions

A list of the most updated potential collisions computed for object CZ-4 DEB.

Target Orbit TCA Probability of collision Miss distance Type
COSMOS 468 LEO 2024-11-13 02:18:20 0.0001281038 93.0 (m) PAYLOAD
JAWSAT SSO 2024-06-07 11:08:04 0.0001065651 523.0 (m) PAYLOAD
FREGAT R/B LEO 2024-06-01 16:46:10 0.0004327201 242.0 (m) ROCKET BODY

Associated space launch

Chinese polar orbiting meteorological satellite

CZ-4 DEB was lifted into orbit during the mission ‘Long March 4A | Feng Yun 1B’, on board a Long March 4A space rocket.

The launch took place on Sept. 3, 1990, 12:53 a.m. from Launch Complex 7.

For more information about the launch, click the button.

Launch to space Long March 4A | Feng Yun 1B
Long March 4A | Feng Yun 1B

Agency: N/A

Status: Launch Successful

Launch date: Sept. 3, 1990, 12:53 a.m. UTC

Rocket: Long March 4A

Launch pad: Launch Complex 7

Location: Taiyuan Satellite Launch Center, People's Republic of China

...

Latest news about this satellite

There are no fresh news available about this satellite. Check back as we update our databases every day.


Newsletter sign-up

Weekly statistics, charts and insights to help you stay on top of the space industry.